Airfield :
LOGIN :

Register | Disclaimer

   EN    FR    IT 

 










Legend :    VFR   Marginal VFR   IFR   Intensive IFR   Very Intensive IFR
Visi :
Ceiling :
>= 8 km
>= 3000ft
5 to 8 km
1000 to 3000 ft
1500m to 5 km
500 to 1000 ft
800 to 1500m
200 to 500 ft
< 800m
< 200 ft
Symbols :   Thunderstorms  Fog  Heavy snow  Heavy precipitations  Wind > 20 kt
SIGMETs :     Misc.  Thunderstorms  Icing  Turbulence  Mountain Waves  Volcanic Ashes







- Airport Elevation : 56 ft


LPOV - Ovar Air Base

CURRENT METAR :
  • 112300Z VRB01KT 9000 SCT006 SCT020 10/09 Q1023

EXPIRED METARs :
  • 112200Z 00000KT 9999 SCT006 SCT022 11/10 Q1023
  • 112100Z VRB02KT 9999 FEW006 SCT025 12/11 Q1023

TAF TAF LPOV
Valid from the 12 at 00:00 until the 13 at 00:00 UTC


112311Z 1200/1224 VRB02KT 5000 BR BKN006
PROB40 1201/1210 0500 DZ FG BKN002
BECMG 1210/1212 18012KT 9999 NSW SCT014 BKN018
TEMPO 1210/1218 4000 -DZRA BKN009
BECMG 1219/1221 17020KT 4000 RA BKN008
TEMPO 1220/1224 18025G35KT 2500 RA OVC005
No reported NOTAMs for that airfield.



MET'MAP, your aeronautical weather chart ! - Copyright ORBIFLY December 2007 - Disclaimer

ORBIFLY MET'MAP TEAM :

Programming & Development : Alexandra Zaïnal
Concept & Development : Baudouin d'Aumeries
Co-Development & Prog : Marc-Olivier Méhu
Technical & hardware support : Manuel Goepfert

Contact : metmap@orbifly.com




SOURCES & CREDITS :

   NOAA